This demonstration page uses our WeatherBlox Daily Observations layout. Learn more.

Left ArrowRight Arrow

38.20091, -84.87328

Hourly Observations for February 2, 2020

Temp ( °F °C ) Dew Point ( °F °C ) Humidity (%) Winds ( mph kmh ) Pressure ( in mb ) Visibility ( mi km ) Precip ( " mm )
12:53 am 00:53 Clear 34 1.1 30 -1.1 85 85 SW 7 11 29.93 1014 10 16 0.00 0.00
1:53 am 01:53 Clear 34 1.1 29 -1.7 82 82 SSW 6 9 29.90 1013 10 16 0.00 0.00
2:53 am 02:53 Clear 33 0.6 29 -1.7 85 85 SSW 8 13 29.89 1012 10 16 0.00 0.00
3:53 am 03:53 Cloudy 34 1.1 30 -1.1 85 85 SSW 7 11 29.88 1012 10 16 0.00 0.00
4:53 am 04:53 Clear 34 1.1 30 -1.1 85 85 SSW 9 15 29.85 1011 10 16 0.00 0.00
5:53 am 05:53 Clear 34 1.1 30 -1.1 85 85 S 9 15 29.82 1010 10 16 0.00 0.00
6:53 am 06:53 Partly Cloudy 35 1.7 30 -1.1 82 82 S 8 13 29.81 1010 10 16 0.00 0.00
7:53 am 07:53 Sunny 37 2.8 31 -0.6 79 79 SSW 14 22 29.79 1009 10 16 0.00 0.00
8:53 am 08:53 Sunny 40 4.4 31 -0.6 70 70 SW 16 26 29.78 1009 10 16 0.00 0.00
9:53 am 09:53 Sunny 45 7.2 34 1.1 66 66 SW 16 26 29.75 1008 10 16 0.00 0.00
10:53 am 10:53 Sunny 50 10 34 1.1 54 54 SW 24 39 29.75 1007 10 16 0.00 0.00
11:53 am 11:53 Sunny 54 12.2 35 1.7 49 49 WSW 15 24 29.75 1007 10 16 0.00 0.00
12:53 pm 12:53 Sunny 57 13.9 36 2.2 45 45 SW 16 26 29.73 1007 10 16 0.00 0.00
1:53 pm 13:53 Sunny 61 16.1 37 2.8 41 41 WSW 12 19 29.70 1006 10 16 0.00 0.00
2:53 pm 14:53 Sunny 63 17.2 37 2.8 38 38 WSW 15 24 29.70 1006 10 16 0.00 0.00
3:53 pm 15:53 Sunny 65 18.3 35 1.7 33 33 WSW 10 17 29.72 1007 10 16 0.00 0.00
4:53 pm 16:53 Sunny 64 17.8 35 1.7 34 34 WSW 13 20 29.73 1007 10 16 0.00 0.00
5:53 pm 17:53 Sunny 61 16.1 35 1.7 38 38 WSW 8 13 29.75 1008 10 16 0.00 0.00
6:53 pm 18:53 Clear 52 11.1 36 2.2 55 55 SW 9 15 29.79 1009 10 16 0.00 0.00
7:53 pm 19:53 Clear 54 12.2 36 2.2 51 51 WSW 9 15 29.82 1010 10 16 0.00 0.00
8:53 pm 20:53 Clear 53 11.7 36 2.2 52 52 WSW 5 7 29.84 1010 10 16 0.00 0.00
9:53 pm 21:53 Clear 48 8.9 36 2.2 63 63 SW 8 13 29.84 1010 10 16 0.00 0.00
10:53 pm 22:53 Clear 49 9.4 37 2.8 64 64 SW 10 17 29.83 1010 10 16 0.00 0.00
11:53 pm 23:53 Clear 49 9.4 36 2.2 61 61 SW 9 15 29.84 1011 10 16 0.00 0.00

Powered by AerisWeather